This demonstration page uses our WeatherBlox Daily Observations layout. Learn more.

Left ArrowRight Arrow

39.51506, -84.39828

Hourly Observations for September 18, 2020

Temp ( °F °C ) Dew Point ( °F °C ) Humidity (%) Winds ( mph kmh ) Pressure ( in mb ) Visibility ( mi km ) Precip ( " mm )
12:15 am 00:15 Partly Cloudy 62 16.9 51 10.6 67 67 NNE 9 15 30.07 1018 10 16.0934 0 0
12:35 am 00:35 Partly Cloudy 62 16.5 51 10.6 68 68 N 6 9 30.07 1018 10 16.0934 0 0
12:55 am 00:55 Clear 60 15.7 51 10.6 72 72 NNE 6 9 30.07 1018 10 16.0934 0 0
1:15 am 01:15 Mostly Cloudy 60 15.7 51 10.8 73 73 NNE 5 7 30.07 1018 10 16.0934 0 0
1:35 am 01:35 Cloudy 61 16.2 52 11 71 71 N 6 9 30.08 1019 10 16.0934 0 0
1:55 am 01:55 Cloudy 61 16 52 10.9 72 72 N 5 7 30.08 1019 10 16.0934 0 0
2:15 am 02:15 Mostly Cloudy 60 15.6 52 11 74 74 N 7 11 30.09 1019 10 16.0934 0 0
2:35 am 02:35 Partly Cloudy 59 15.2 52 10.9 76 76 N 8 13 30.09 1019 10 16.0934 0 0
2:55 am 02:55 Mostly Cloudy 59 14.9 51 10.7 76 76 N 8 13 30.09 1019 10 16.0934 0 0
3:15 am 03:15 Clear 58 14.5 51 10.3 76 76 N 9 15 30.1 1019 10 16.0934 0 0
3:35 am 03:35 Partly Cloudy 58 14.4 50 9.9 75 75 N 10 17 30.1 1019 10 16.0934 0 0
3:55 am 03:55 Partly Cloudy 57 14.1 49 9.6 75 75 N 9 15 30.1 1019 10 16.0934 0 0
4:15 am 04:15 Clear 56 13.3 49 9.5 78 78 N 8 13 30.1 1019 10 16.0934 0 0
4:35 am 04:35 Clear 55 12.8 49 9.5 81 81 N 9 15 30.11 1020 10 16.0934 0 0
4:55 am 04:55 Partly Cloudy 55 12.8 49 9.6 81 81 N 10 17 30.12 1020 10 16.0934 0 0
5:15 am 05:15 Partly Cloudy 55 12.6 49 9.7 83 83 N 10 17 30.12 1020 10 16.0934 0 0
5:35 am 05:35 Clear 54 12.4 49 9.5 83 83 N 9 15 30.13 1020 10 16.0934 0 0
5:55 am 05:55 Clear 54 12 49 9.4 84 84 N 8 13 30.14 1021 10 16.0934 0 0
6:15 am 06:15 Clear 53 11.8 49 9.5 86 86 N 7 11 30.14 1021 10 16.0934 0 0
6:35 am 06:35 Clear 53 11.4 49 9.4 88 88 N 7 11 30.16 1021 10 16.0934 0 0
6:55 am 06:55 Clear 52 11.2 49 9.4 89 89 N 6 9 30.17 1022 10 16.0934 0 0
7:15 am 07:15 Clear 52 11.2 50 9.8 91 91 Calm 30.18 1022 10 16.0934 0 0
7:35 am 07:35 Sunny 52 11.1 50 9.9 92 92 N 6 9 30.19 1022 10 16.0934 0 0
7:55 am 07:55 Sunny 52 11.1 50 10 93 93 N 8 13 30.2 1023 10 16.0934 0 0
8:15 am 08:15 Sunny 53 11.4 50 10.1 92 92 N 7 11 30.2 1023 10 16.0934 0 0
8:35 am 08:35 Sunny 54 12 50 10.1 88 88 N 8 13 30.2 1023 10 16.0934 0 0
8:55 am 08:55 Sunny 54 12.4 49 9.7 84 84 N 8 13 30.21 1023 10 16.0934 0 0
9:15 am 09:15 Sunny 56 13.3 49 9.5 78 78 NNE 12 19 30.21 1023 10 16.0934 0 0
9:35 am 09:35 Sunny 57 13.9 47 8.4 70 70 NNE 14 22 30.22 1023 10 16.0934 0 0
9:55 am 09:55 Sunny 58 14.4 46 7.7 64 64 NNE 17 28 30.23 1024 10 16.0934 0 0
10:10 am 10:10 Sunny 58 14.7 46 7.8 64 64 N 13 20 30.23 1024 10 16.0934 0 0
10:35 am 10:35 Sunny 60 15.7 44 6.9 56 56 NE 16 26 30.24 1024 10 16.0934 0 0
10:55 am 10:55 Sunny 60 15.6 43 6.3 54 54 NNE 17 28 30.25 1024 10 16.0934 0 0
11:15 am 11:15 Sunny 62 16.5 43 6.3 51 51 N 18 30 30.24 1024 10 16.0934 0 0
11:35 am 11:35 Sunny 62 16.5 43 6.1 50 50 N 15 24 30.24 1024 10 16.0934 0 0
11:55 am 11:55 Sunny 63 17.2 42 5.5 46 46 N 17 28 30.24 1024 10 16.0934 0 0
12:15 pm 12:15 Sunny 63 17.2 43 6 48 48 N 13 20 30.24 1024 10 16.0934 0 0
12:35 pm 12:35 Sunny 63 17.3 43 6 48 48 NNE 10 17 30.23 1024 10 16.0934 0 0
12:55 pm 12:55 Sunny 64 18 42 5.7 45 45 NE 15 24 30.23 1024 10 16.0934 0 0
1:15 pm 13:15 Sunny 65 18.1 40 4.6 41 41 N 16 26 30.23 1024 10 16.0934 0 0
1:35 pm 13:35 Sunny 66 19 41 4.8 39 39 N 12 19 30.22 1023 10 16.0934 0 0
1:50 pm 13:50 Sunny 67 19.2 40 4.6 38 38 NNE 13 20 30.22 1023 10 16.0934 0 0
2:15 pm 14:15 Sunny 66 18.9 39 3.9 37 37 NNE 20 31 30.22 1023 10 16.0934 0 0
2:35 pm 14:35 Sunny 66 19.1 40 4.3 38 38 NNE 17 28 30.22 1023 10 16.0934 0 0
2:55 pm 14:55 Sunny 67 19.6 41 4.9 38 38 N 14 22 30.22 1023 10 16.0934 0 0
3:15 pm 15:15 Sunny 67 19.3 40 4.4 38 38 NE 14 22 30.22 1023 10 16.0934 0 0
3:35 pm 15:35 Sunny 67 19.4 40 4.4 37 37 NNE 16 26 30.22 1023 10 16.0934 0 0
3:55 pm 15:55 Sunny 67 19.5 39 4.1 36 36 N 15 24 30.22 1023 10 16.0934 0 0
4:15 pm 16:15 Sunny 67 19.3 39 3.7 36 36 NNE 17 28 30.22 1023 10 16.0934 0 0
4:35 pm 16:35 Sunny 67 19.3 40 4.2 37 37 NE 16 26 30.21 1023 10 16.0934 0 0
4:55 pm 16:55 Sunny 66 19.1 39 4.1 37 37 NNE 14 22 30.22 1023 10 16.0934 0 0
5:15 pm 17:15 Sunny 66 18.8 39 3.7 37 37 N 12 19 30.22 1023 10 16.0934 0 0
5:35 pm 17:35 Sunny 66 18.7 39 4 38 38 NNE 14 22 30.22 1023 10 16.0934 0 0
5:55 pm 17:55 Sunny 65 18.4 38 3.5 37 37 NNE 12 19 30.22 1023 10 16.0934 0 0
6:15 pm 18:15 Sunny 65 18.3 38 3.4 37 37 NE 14 22 30.22 1023 10 16.0934 0 0
6:35 pm 18:35 Sunny 64 17.9 38 3.4 38 38 NNE 13 20 30.22 1023 10 16.0934 0 0
6:55 pm 18:55 Sunny 63 17.4 38 3.4 39 39 NE 16 26 30.22 1023 10 16.0934 0 0
7:15 pm 19:15 Sunny 62 16.6 38 3.4 42 42 NNE 12 19 30.23 1024 10 16.0934 0 0
7:35 pm 19:35 Sunny 60 15.7 38 3.5 44 44 NNE 8 13 30.24 1024 10 16.0934 0 0
7:55 pm 19:55 Clear 59 15 39 3.8 47 47 NNE 9 15 30.25 1024 10 16.0934 0 0
8:15 pm 20:15 Clear 58 14.6 40 4.2 50 50 NNE 7 11 30.26 1025 10 16.0934 0 0
8:35 pm 20:35 Clear 56 13.5 40 4.5 55 55 NNE 6 9 30.27 1025 10 16.0934 0 0
8:55 pm 20:55 Clear 55 13 40 4.7 57 57 NNE 7 11 30.28 1025 10 16.0934 0 0
9:15 pm 21:15 Clear 56 13.4 40 4.4 55 55 NNE 8 13 30.29 1026 10 16.0934 0 0
9:35 pm 21:35 Clear 56 13.1 40 4.3 55 55 NNE 8 13 30.29 1026 10 16.0934 0 0
9:55 pm 21:55 Clear 55 12.7 40 4.2 57 57 NNE 7 11 30.3 1026 10 16.0934 0 0
10:15 pm 22:15 Clear 54 12.3 40 4.3 58 58 NE 8 13 30.3 1026 10 16.0934 0 0
10:35 pm 22:35 Clear 54 12.4 40 4.3 58 58 NE 8 13 30.31 1027 10 16.0934 0 0
10:55 pm 22:55 Clear 54 12.2 40 4.2 58 58 NE 10 17 30.31 1027 10 16.0934 0 0
11:15 pm 23:15 Clear 53 11.9 40 4.2 60 60 NE 10 17 30.32 1027 10 16.0934 0 0
11:35 pm 23:35 Clear 53 11.5 39 4.1 61 61 NE 9 15 30.33 1027 10 16.0934 0 0
11:55 pm 23:55 Clear 52 11 39 4 62 62 NNE 8 13 30.34 1027 10 16.0934 0 0

Powered by AerisWeather